Location: Veytaux
(46.4185°N, 6.9320°E)
Time: 07:33:13
(UTC+00:00)

Cosmos 407 Rocket - Pass Details

Date: 27 May 2022
Orbit: 743 x 786 km, 74.0° (Epoch: 01 July)

Event Time Altitude Azimuth Distance (km) Brightness Sun altitude
Rises 02:06:50 0° 340° (NNW) 3,282 7.2 -13.5°
Reaches altitude 10° 02:09:16 10° 344° (NNW) 2,346 6.5 -13.3°
Maximum altitude 02:14:34 63° 65° (ENE) 866 4.0 -12.7°
Drops below altitude 10° 02:19:46 10° 147° (SSE) 2,305 5.8 -12.1°
Sets 02:22:08 0° 150° (SSE) 3,221 6.5 -11.9°
